Location: Ehrke Reservoir
(40.0279°N, 99.6641°W)
Time: 16:10:34
(UTC+00:00)

Cosmos 1825 Rocket - Pass Details

Date: 20 January 2020
Orbit: 604 x 631 km, 82.5° (Epoch: 19 February)

Event Time Altitude Azimuth Distance (km) Brightness Sun altitude
Rises 01:16:03 0° 188° (S) 2,875 7.2 -17.8°
Reaches altitude 10° 01:18:17 10° 189° (S) 1,970 6.4 -18.2°
Maximum altitude 01:22:38 82° 276° (W) 623 3.5 -19.1°
Drops below altitude 10° 01:27:00 10° 6° (N) 1,969 6.0 -19.9°
Enters shadow 01:27:31 - 6° (N) 2,176 6.2 -20.0°
